Regional Weather Roundup
Issued by NWS

Home | Current Version | Previous Version | Text Only | Print | Product List | Glossary On
Versions: 1 2 3 4 5 6 7 8 9 10 11 12 13 14 15 16 17 18 19 20 21 22 23 24 25 26 27 28 29 30 31 32 33 34 35 36 37 38 39 40 41 42 43 44 45 46 47 48 49 50
000
ASUS43 KLMK 301010
RWRKY
KENTUCKY REGIONAL WEATHER ROUNDUP
NATIONAL WEATHER SERVICE LOUISVILLE KY
600 AM EDT SAT APR 30 2016

NOTE "FAIR" INDICATES FEW OR NO CLOUDS BELOW 12,000 FEET
WITH NO SIGNIFICANT WEATHER AND/OR OBSTRUCTIONS TO VISIBILITY.

KYZ001>023-026-027-061>063-070>075-301100-
WESTERN AND SOUTH CENTRAL KENTUCKY

CITY           SKY/WX    TMP DP  RH WIND       PRES   REMARKS
PADUCAH        RAIN      61  59  93 S5        29.86R FOG
HENDERSON      CLOUDY    61  52  72 E7        29.88F
OWENSBORO      CLOUDY    62  55  77 E8        29.90F
HOPKINSVILLE   LGT RAIN  61  61 100 SW7       29.90R
BOWLING GREEN  CLOUDY    63  55  75 NE7       29.90F
GLASGOW        CLOUDY    61  53  73 NE6       29.92F
$$

KYZ024-025-028>034-038-045-046-053-301100-
NORTH CENTRAL KENTUCKY

CITY           SKY/WX    TMP DP  RH WIND       PRES   REMARKS
LOUISVILLE/SDF CLOUDY    61  53  75 E7        29.97R
LOUISVILLE/LOU CLOUDY    60  52  74 E7        29.98R
FORT KNOX      CLOUDY    58  53  82 NE10      29.93F
$$

KYZ035>037-039>044-047>052-055>060-089>105-301100-
NORTHEAST KENTUCKY

CITY           SKY/WX    TMP DP  RH WIND       PRES   REMARKS
LEXINGTON      CLOUDY    58  51  78 E14       29.98F
COVINGTON      CLOUDY    53  47  79 E12       30.02F
FRANKFORT      CLOUDY    59  50  72 E10       29.97F
$$

KYZ054-064>069-076>088-106>120-301100-
SOUTHEAST KENTUCKY

CITY           SKY/WX    TMP DP  RH WIND       PRES   REMARKS
JACKSON        CLOUDY    57  50  77 CALM      30.00F
LONDON         CLOUDY    60  50  69 NE5       29.97F
SOMERSET       CLOUDY    59  50  72 E3        29.98R
MIDDLESBORO    CLOUDY    56  55  95 CALM      29.99S
MONTICELLO     CLOUDY    61  54  77 NW6       29.97S
$$





USA.gov is the U.S. government's official web portal to all federal, state and local government web resources and services.